User: anonymous   Login
Location: Caltech
(34.1382°N, 118.1253°W)
Time: 06:57:06
(UTC-07:00)
Language:

Oscar 10/S400 - Orbit

View from above orbital plane
View from above orbital plane
View from above satellite
View from above satellite

Ground track
Ground track

The orbit data is extracted from the following two-line orbital elements,

1 14129U 83058B   17172.22613837 -.00000208 +00000-0 +00000-0 0  9992
2 14129 027.0214 033.5330 6024784 306.6395 333.2063 02.05870238227900
Epoch (UTC): 21 June 2017 05:25:38
Eccentricity: 0.6024784
inclination: 27.0214°
perigee height: 3998 km
apogee height: 35449 km
right ascension of ascending node: 33.5330°
argument of perigee: 306.6395°
revolutions per day: 2.05870238
mean anomaly at epoch: 333.2063°
orbit number at epoch: 22790

The dashed part of the orbit path shows where the satellite is in the earth's shadow,  

DLR